owner,sensor,date,latitude,longitude,vertical_datum,mass_concentration_of_oxygen_in_sea_water,qcFlag 
DISL,ioos:station:DISL:MBLA:1,2014-10-01T00:02:00Z,30.4367,-88.0117,3.017,7.09,1111122 
DISL,ioos:station:DISL:MBLA:1,2014-10-01T00:05:00Z,30.4367,-88.0117,2.459,9.48,1111122 
DISL,ioos:station:DISL:MBLA:1,2014-10-01T00:07:00Z,30.4367,-88.0117,1.928,8.59,1111122 
DISL,ioos:station:DISL:MBLA:1,2014-10-01T00:10:00Z,30.4367,-88.0117,1.415,7.99,1111122 
DISL,ioos:station:DISL:MBLA:1,2014-10-01T00:12:00Z,30.4367,-88.0117,1.053,8.0,1111122 
DISL,ioos:station:DISL:MBLA:1,2014-10-01T00:15:00Z,30.4367,-88.0117,0.569,7.92,1111122 
DISL,ioos:station:DISL:MBLA:1,2014-10-01T01:02:00Z,30.4367,-88.0117,3.035,7.77,1111122 
DISL,ioos:station:DISL:MBLA:1,2014-10-01T01:05:00Z,30.4367,-88.0117,2.468,8.53,1111122 
DISL,ioos:station:DISL:MBLA:1,2014-10-01T01:07:00Z,30.4367,-88.0117,2.059,8.67,1111122 
DISL,ioos:station:DISL:MBLA:1,2014-10-01T01:10:00Z,30.4367,-88.0117,1.551,7.99,1111122 
DISL,ioos:station:DISL:MBLA:1,2014-10-01T01:13:00Z,30.4367,-88.0117,1.054,8.08,1111122 
DISL,ioos:station:DISL:MBLA:1,2014-10-01T01:15:00Z,30.4367,-88.0117,0.411,8.03,1111122 
DISL,ioos:station:DISL:MBLA:1,2014-10-01T02:02:00Z,30.4367,-88.0117,3.013,7.51,1111122 
DISL,ioos:station:DISL:MBLA:1,2014-10-01T02:05:00Z,30.4367,-88.0117,2.461,8.16,1111122 
DISL,ioos:station:DISL:MBLA:1,2014-10-01T02:07:00Z,30.4367,-88.0117,2.051,8.23,1111122 
DISL,ioos:station:DISL:MBLA:1,2014-10-01T02:10:00Z,30.4367,-88.0117,1.561,8.06,1111122 
DISL,ioos:station:DISL:MBLA:1,2014-10-01T02:12:00Z,30.4367,-88.0117,0.916,8.05,1111122 
DISL,ioos:station:DISL:MBLA:1,2014-10-01T02:15:00Z,30.4367,-88.0117,0.414,8.05,1111122 
DISL,ioos:station:DISL:MBLA:1,2014-10-01T03:07:00Z,30.4367,-88.0117,1.941,8.05,1111122 
DISL,ioos:station:DISL:MBLA:1,2014-10-01T03:10:00Z,30.4367,-88.0117,1.422,8.07,1111122 
DISL,ioos:station:DISL:MBLA:1,2014-10-01T03:12:00Z,30.4367,-88.0117,0.925,7.99,1111122 
DISL,ioos:station:DISL:MBLA:1,2014-10-01T03:14:00Z,30.4367,-88.0117,0.421,8.0,1111122 
DISL,ioos:station:DISL:MBLA:1,2014-10-01T04:02:00Z,30.4367,-88.0117,2.986,7.69,1111122 
DISL,ioos:station:DISL:MBLA:1,2014-10-01T04:05:00Z,30.4367,-88.0117,2.436,8.03,1111122 
DISL,ioos:station:DISL:MBLA:1,2014-10-01T04:07:00Z,30.4367,-88.0117,1.93,7.95,1111122 
DISL,ioos:station:DISL:MBLA:1,2014-10-01T04:10:00Z,30.4367,-88.0117,1.593,7.96,1111122 
DISL,ioos:station:DISL:MBLA:1,2014-10-01T04:12:00Z,30.4367,-88.0117,0.936,7.96,1111122 
DISL,ioos:station:DISL:MBLA:1,2014-10-01T04:15:00Z,30.4367,-88.0117,0.472,7.92,1111122 
DISL,ioos:station:DISL:MBLA:1,2014-10-01T05:02:00Z,30.4367,-88.0117,3.006,7.82,1111122 
DISL,ioos:station:DISL:MBLA:1,2014-10-01T05:05:00Z,30.4367,-88.0117,2.449,7.92,1111122 
DISL,ioos:station:DISL:MBLA:1,2014-10-01T05:07:00Z,30.4367,-88.0117,1.934,7.97,1111122 
DISL,ioos:station:DISL:MBLA:1,2014-10-01T05:10:00Z,30.4367,-88.0117,1.413,7.91,1111122 
DISL,ioos:station:DISL:MBLA:1,2014-10-01T05:12:00Z,30.4367,-88.0117,0.919,7.92,1111122 
DISL,ioos:station:DISL:MBLA:1,2014-10-01T05:14:00Z,30.4367,-88.0117,0.394,7.88,1111122 
DISL,ioos:station:DISL:MBLA:1,2014-10-01T06:02:00Z,30.4367,-88.0117,3.052,7.82,1111122 
DISL,ioos:station:DISL:MBLA:1,2014-10-01T06:05:00Z,30.4367,-88.0117,2.432,7.71,1111122 
DISL,ioos:station:DISL:MBLA:1,2014-10-01T06:07:00Z,30.4367,-88.0117,1.917,7.77,1111122 
DISL,ioos:station:DISL:MBLA:1,2014-10-01T06:10:00Z,30.4367,-88.0117,1.4,7.71,1111122 
DISL,ioos:station:DISL:MBLA:1,2014-10-01T06:12:00Z,30.4367,-88.0117,0.915,7.75,1111122 
DISL,ioos:station:DISL:MBLA:1,2014-10-01T06:14:00Z,30.4367,-88.0117,0.413,7.67,1111122 
DISL,ioos:station:DISL:MBLA:1,2014-10-01T07:02:00Z,30.4367,-88.0117,3.042,7.55,1111122 
DISL,ioos:station:DISL:MBLA:1,2014-10-01T07:07:00Z,30.4367,-88.0117,1.9,7.73,1111122 
DISL,ioos:station:DISL:MBLA:1,2014-10-01T07:10:00Z,30.4367,-88.0117,1.557,7.74,1111122 
DISL,ioos:station:DISL:MBLA:1,2014-10-01T07:12:00Z,30.4367,-88.0117,0.924,7.73,1111122 
DISL,ioos:station:DISL:MBLA:1,2014-10-01T07:15:00Z,30.4367,-88.0117,0.423,7.63,1111122 
DISL,ioos:station:DISL:MBLA:1,2014-10-01T08:02:00Z,30.4367,-88.0117,3.035,7.57,1111122 
DISL,ioos:station:DISL:MBLA:1,2014-10-01T08:05:00Z,30.4367,-88.0117,2.475,7.64,1111122 
DISL,ioos:station:DISL:MBLA:1,2014-10-01T08:07:00Z,30.4367,-88.0117,2.063,7.69,1111122 
DISL,ioos:station:DISL:MBLA:1,2014-10-01T08:10:00Z,30.4367,-88.0117,1.4,7.68,1111122 
DISL,ioos:station:DISL:MBLA:1,2014-10-01T08:12:00Z,30.4367,-88.0117,0.909,7.63,1111122 
DISL,ioos:station:DISL:MBLA:1,2014-10-01T08:15:00Z,30.4367,-88.0117,0.403,7.63,1111122 
DISL,ioos:station:DISL:MBLA:1,2014-10-01T09:02:00Z,30.4367,-88.0117,3.064,7.46,1111122 
DISL,ioos:station:DISL:MBLA:1,2014-10-01T09:07:00Z,30.4367,-88.0117,1.923,7.65,1111122 
DISL,ioos:station:DISL:MBLA:1,2014-10-01T09:10:00Z,30.4367,-88.0117,1.417,7.36,1111122 
DISL,ioos:station:DISL:MBLA:1,2014-10-01T09:14:00Z,30.4367,-88.0117,0.419,7.6,1111122 
DISL,ioos:station:DISL:MBLA:1,2014-10-01T10:02:00Z,30.4367,-88.0117,3.002,7.75,1111122 
DISL,ioos:station:DISL:MBLA:1,2014-10-01T10:05:00Z,30.4367,-88.0117,2.438,7.46,1111122 
DISL,ioos:station:DISL:MBLA:1,2014-10-01T10:07:00Z,30.4367,-88.0117,1.928,7.48,1111122 
DISL,ioos:station:DISL:MBLA:1,2014-10-01T10:10:00Z,30.4367,-88.0117,1.418,7.52,1111122 
DISL,ioos:station:DISL:MBLA:1,2014-10-01T10:12:00Z,30.4367,-88.0117,0.925,7.52,1111122 
DISL,ioos:station:DISL:MBLA:1,2014-10-01T11:02:00Z,30.4367,-88.0117,3.044,7.32,1111122 
DISL,ioos:station:DISL:MBLA:1,2014-10-01T11:05:00Z,30.4367,-88.0117,2.486,7.31,1111122 
DISL,ioos:station:DISL:MBLA:1,2014-10-01T11:07:00Z,30.4367,-88.0117,2.065,7.39,1111122 
DISL,ioos:station:DISL:MBLA:1,2014-10-01T11:10:00Z,30.4367,-88.0117,1.415,7.36,1111122 
DISL,ioos:station:DISL:MBLA:1,2014-10-01T11:12:00Z,30.4367,-88.0117,1.097,7.43,1111122 
DISL,ioos:station:DISL:MBLA:1,2014-10-01T12:02:00Z,30.4367,-88.0117,2.984,7.42,1111122 
DISL,ioos:station:DISL:MBLA:1,2014-10-01T12:05:00Z,30.4367,-88.0117,2.443,7.36,1111122 
DISL,ioos:station:DISL:MBLA:1,2014-10-01T12:07:00Z,30.4367,-88.0117,1.939,7.41,1111122 
DISL,ioos:station:DISL:MBLA:1,2014-10-01T12:10:00Z,30.4367,-88.0117,1.428,7.39,1111122 
DISL,ioos:station:DISL:MBLA:1,2014-10-01T12:12:00Z,30.4367,-88.0117,0.945,7.48,1111122 
DISL,ioos:station:DISL:MBLA:1,2014-10-01T12:14:00Z,30.4367,-88.0117,0.447,7.49,1111122 
DISL,ioos:station:DISL:MBLA:1,2014-10-01T13:02:00Z,30.4367,-88.0117,3.066,7.03,1111122 
DISL,ioos:station:DISL:MBLA:1,2014-10-01T13:05:00Z,30.4367,-88.0117,2.426,7.25,1111122 
DISL,ioos:station:DISL:MBLA:1,2014-10-01T13:07:00Z,30.4367,-88.0117,1.905,7.45,1111122 
DISL,ioos:station:DISL:MBLA:1,2014-10-01T13:10:00Z,30.4367,-88.0117,1.558,7.44,1111122 
DISL,ioos:station:DISL:MBLA:1,2014-10-01T13:12:00Z,30.4367,-88.0117,0.906,7.53,1111122 
DISL,ioos:station:DISL:MBLA:1,2014-10-01T13:15:00Z,30.4367,-88.0117,0.555,7.51,1111122 
DISL,ioos:station:DISL:MBLA:1,2014-10-01T14:02:00Z,30.4367,-88.0117,3.027,7.12,1111122 
DISL,ioos:station:DISL:MBLA:1,2014-10-01T14:05:00Z,30.4367,-88.0117,2.562,7.43,1111122 
DISL,ioos:station:DISL:MBLA:1,2014-10-01T14:08:00Z,30.4367,-88.0117,2.07,7.46,1111122 
DISL,ioos:station:DISL:MBLA:1,2014-10-01T14:10:00Z,30.4367,-88.0117,1.554,7.5,1111122 
DISL,ioos:station:DISL:MBLA:1,2014-10-01T14:13:00Z,30.4367,-88.0117,0.959,7.56,1111122 
DISL,ioos:station:DISL:MBLA:1,2014-10-01T14:15:00Z,30.4367,-88.0117,0.604,7.58,1111122 
DISL,ioos:station:DISL:MBLA:1,2014-10-01T15:02:00Z,30.4367,-88.0117,3.106,7.08,1111122 
DISL,ioos:station:DISL:MBLA:1,2014-10-01T15:05:00Z,30.4367,-88.0117,2.458,7.38,1111122 
DISL,ioos:station:DISL:MBLA:1,2014-10-01T15:08:00Z,30.4367,-88.0117,1.903,7.47,1111122 
DISL,ioos:station:DISL:MBLA:1,2014-10-01T15:10:00Z,30.4367,-88.0117,1.448,7.53,1111122 
DISL,ioos:station:DISL:MBLA:1,2014-10-01T15:15:00Z,30.4367,-88.0117,0.411,7.66,1111122 
DISL,ioos:station:DISL:MBLA:1,2014-10-01T16:02:00Z,30.4367,-88.0117,3.063,7.13,1111122 
DISL,ioos:station:DISL:MBLA:1,2014-10-01T16:05:00Z,30.4367,-88.0117,2.557,7.44,1111122 
DISL,ioos:station:DISL:MBLA:1,2014-10-01T16:10:00Z,30.4367,-88.0117,1.594,7.66,1111122 
DISL,ioos:station:DISL:MBLA:1,2014-10-01T16:13:00Z,30.4367,-88.0117,1.061,7.65,1111122 
DISL,ioos:station:DISL:MBLA:1,2014-10-01T16:15:00Z,30.4367,-88.0117,0.545,7.71,1111122 
DISL,ioos:station:DISL:MBLA:1,2014-10-01T17:03:00Z,30.4367,-88.0117,2.949,6.91,1111122 
DISL,ioos:station:DISL:MBLA:1,2014-10-01T17:08:00Z,30.4367,-88.0117,1.899,7.72,1111122 
DISL,ioos:station:DISL:MBLA:1,2014-10-01T17:10:00Z,30.4367,-88.0117,1.592,7.7,1111122 
DISL,ioos:station:DISL:MBLA:1,2014-10-01T17:13:00Z,30.4367,-88.0117,0.975,7.69,1111122 
DISL,ioos:station:DISL:MBLA:1,2014-10-01T17:15:00Z,30.4367,-88.0117,0.342,7.76,1111122 
DISL,ioos:station:DISL:MBLA:1,2014-10-01T18:02:00Z,30.4367,-88.0117,3.081,7.09,1111122 
DISL,ioos:station:DISL:MBLA:1,2014-10-01T18:05:00Z,30.4367,-88.0117,2.567,7.72,1111122 
DISL,ioos:station:DISL:MBLA:1,2014-10-01T18:08:00Z,30.4367,-88.0117,2.049,7.91,1111122 
DISL,ioos:station:DISL:MBLA:1,2014-10-01T18:10:00Z,30.4367,-88.0117,1.597,7.9,1111122 
DISL,ioos:station:DISL:MBLA:1,2014-10-01T18:13:00Z,30.4367,-88.0117,1.057,7.96,1111122 
DISL,ioos:station:DISL:MBLA:1,2014-10-01T18:16:00Z,30.4367,-88.0117,0.469,7.8,1111122 
DISL,ioos:station:DISL:MBLA:1,2014-10-01T19:03:00Z,30.4367,-88.0117,2.968,7.78,1111122 
DISL,ioos:station:DISL:MBLA:1,2014-10-01T19:05:00Z,30.4367,-88.0117,2.46,8.03,1111122 
DISL,ioos:station:DISL:MBLA:1,2014-10-01T19:08:00Z,30.4367,-88.0117,1.914,8.06,1111122 
DISL,ioos:station:DISL:MBLA:1,2014-10-01T19:10:00Z,30.4367,-88.0117,1.536,8.01,1111122 
DISL,ioos:station:DISL:MBLA:1,2014-10-01T19:13:00Z,30.4367,-88.0117,1.084,8.0,1111122 
DISL,ioos:station:DISL:MBLA:1,2014-10-01T19:16:00Z,30.4367,-88.0117,0.575,8.13,1111122 
DISL,ioos:station:DISL:MBLA:1,2014-10-01T20:02:00Z,30.4367,-88.0117,3.073,8.17,1111122 
DISL,ioos:station:DISL:MBLA:1,2014-10-01T20:05:00Z,30.4367,-88.0117,2.577,8.14,1111122 
DISL,ioos:station:DISL:MBLA:1,2014-10-01T20:08:00Z,30.4367,-88.0117,2.07,8.07,1111122 
DISL,ioos:station:DISL:MBLA:1,2014-10-01T20:10:00Z,30.4367,-88.0117,1.546,8.2,1111122 
DISL,ioos:station:DISL:MBLA:1,2014-10-01T20:13:00Z,30.4367,-88.0117,0.934,8.44,1111122 
DISL,ioos:station:DISL:MBLA:1,2014-10-01T20:15:00Z,30.4367,-88.0117,0.399,8.64,1111122 
DISL,ioos:station:DISL:MBLA:1,2014-10-01T21:02:00Z,30.4367,-88.0117,3.09,8.17,1111122 
DISL,ioos:station:DISL:MBLA:1,2014-10-01T21:05:00Z,30.4367,-88.0117,2.415,8.44,1111122 
DISL,ioos:station:DISL:MBLA:1,2014-10-01T21:07:00Z,30.4367,-88.0117,2.051,8.3,1111122 
DISL,ioos:station:DISL:MBLA:1,2014-10-01T21:10:00Z,30.4367,-88.0117,1.45,8.79,1111122 
DISL,ioos:station:DISL:MBLA:1,2014-10-01T21:13:00Z,30.4367,-88.0117,0.892,8.89,1111122 
DISL,ioos:station:DISL:MBLA:1,2014-10-01T21:15:00Z,30.4367,-88.0117,0.397,8.92,1111122 
DISL,ioos:station:DISL:MBLA:1,2014-10-01T22:02:00Z,30.4367,-88.0117,3.091,7.92,1111122 
DISL,ioos:station:DISL:MBLA:1,2014-10-01T22:05:00Z,30.4367,-88.0117,2.433,8.34,1111122 
DISL,ioos:station:DISL:MBLA:1,2014-10-01T22:07:00Z,30.4367,-88.0117,1.9,8.64,1111122 
DISL,ioos:station:DISL:MBLA:1,2014-10-01T22:10:00Z,30.4367,-88.0117,1.522,8.79,1111122 
DISL,ioos:station:DISL:MBLA:1,2014-10-01T22:12:00Z,30.4367,-88.0117,1.083,8.86,1111122 
DISL,ioos:station:DISL:MBLA:1,2014-10-01T22:15:00Z,30.4367,-88.0117,0.666,8.87,1111122 
DISL,ioos:station:DISL:MBLA:1,2014-10-01T23:02:00Z,30.4367,-88.0117,3.078,8.19,1111122 
DISL,ioos:station:DISL:MBLA:1,2014-10-01T23:05:00Z,30.4367,-88.0117,2.421,8.31,1111122 
DISL,ioos:station:DISL:MBLA:1,2014-10-01T23:07:00Z,30.4367,-88.0117,2.076,8.59,1111122 
DISL,ioos:station:DISL:MBLA:1,2014-10-01T23:10:00Z,30.4367,-88.0117,1.587,8.59,1111122 
DISL,ioos:station:DISL:MBLA:1,2014-10-01T23:12:00Z,30.4367,-88.0117,0.911,8.52,1111122 
DISL,ioos:station:DISL:MBLA:1,2014-10-01T23:15:00Z,30.4367,-88.0117,0.563,8.53,1111122 
DISL,ioos:station:DISL:MBLA:1,2014-10-02T00:02:00Z,30.4367,-88.0117,3.029,7.73,1111122 
DISL,ioos:station:DISL:MBLA:1,2014-10-02T00:05:00Z,30.4367,-88.0117,2.471,7.97,1111122 
DISL,ioos:station:DISL:MBLA:1,2014-10-02T00:07:00Z,30.4367,-88.0117,1.982,8.07,1111122 
DISL,ioos:station:DISL:MBLA:1,2014-10-02T00:10:00Z,30.4367,-88.0117,1.384,8.1,1111122 
DISL,ioos:station:DISL:MBLA:1,2014-10-02T00:12:00Z,30.4367,-88.0117,0.885,8.03,1111122 
DISL,ioos:station:DISL:MBLA:1,2014-10-02T00:15:00Z,30.4367,-88.0117,0.359,8.06,1111122 
DISL,ioos:station:DISL:MBLA:1,2014-10-02T01:02:00Z,30.4367,-88.0117,3.041,7.95,1111122 
DISL,ioos:station:DISL:MBLA:1,2014-10-02T01:05:00Z,30.4367,-88.0117,2.408,7.99,1111122 
DISL,ioos:station:DISL:MBLA:1,2014-10-02T01:07:00Z,30.4367,-88.0117,2.067,8.06,1111122 
DISL,ioos:station:DISL:MBLA:1,2014-10-02T01:10:00Z,30.4367,-88.0117,1.388,8.05,1111122 
DISL,ioos:station:DISL:MBLA:1,2014-10-02T01:12:00Z,30.4367,-88.0117,1.03,7.99,1111122 
DISL,ioos:station:DISL:MBLA:1,2014-10-02T01:15:00Z,30.4367,-88.0117,0.43,8.01,1111122 
DISL,ioos:station:DISL:MBLA:1,2014-10-02T02:02:00Z,30.4367,-88.0117,3.035,8.01,1111122 
DISL,ioos:station:DISL:MBLA:1,2014-10-02T02:05:00Z,30.4367,-88.0117,2.476,8.07,1111122 
DISL,ioos:station:DISL:MBLA:1,2014-10-02T02:07:00Z,30.4367,-88.0117,2.062,8.01,1111122 
DISL,ioos:station:DISL:MBLA:1,2014-10-02T02:10:00Z,30.4367,-88.0117,1.381,7.99,1111122 
DISL,ioos:station:DISL:MBLA:1,2014-10-02T02:12:00Z,30.4367,-88.0117,1.04,7.96,1111122 
DISL,ioos:station:DISL:MBLA:1,2014-10-02T02:15:00Z,30.4367,-88.0117,0.4,7.99,1111122 
DISL,ioos:station:DISL:MBLA:1,2014-10-02T03:02:00Z,30.4367,-88.0117,3.015,8.02,1111122 
DISL,ioos:station:DISL:MBLA:1,2014-10-02T03:07:00Z,30.4367,-88.0117,1.935,7.94,1111122 
DISL,ioos:station:DISL:MBLA:1,2014-10-02T03:10:00Z,30.4367,-88.0117,1.597,7.93,1111122 
DISL,ioos:station:DISL:MBLA:1,2014-10-02T03:12:00Z,30.4367,-88.0117,0.94,7.9,1111122 
DISL,ioos:station:DISL:MBLA:1,2014-10-02T03:15:00Z,30.4367,-88.0117,0.433,7.84,1111122 
DISL,ioos:station:DISL:MBLA:1,2014-10-02T04:02:00Z,30.4367,-88.0117,3.007,7.96,1111122 
DISL,ioos:station:DISL:MBLA:1,2014-10-02T04:05:00Z,30.4367,-88.0117,2.445,7.89,1111122 
DISL,ioos:station:DISL:MBLA:1,2014-10-02T04:07:00Z,30.4367,-88.0117,1.935,7.82,1111122 
DISL,ioos:station:DISL:MBLA:1,2014-10-02T04:10:00Z,30.4367,-88.0117,1.406,7.84,1111122 
DISL,ioos:station:DISL:MBLA:1,2014-10-02T04:12:00Z,30.4367,-88.0117,0.911,7.8,1111122 
DISL,ioos:station:DISL:MBLA:1,2014-10-02T04:14:00Z,30.4367,-88.0117,0.387,7.75,1111122 
DISL,ioos:station:DISL:MBLA:1,2014-10-02T05:02:00Z,30.4367,-88.0117,3.066,7.84,1111122 
DISL,ioos:station:DISL:MBLA:1,2014-10-02T05:05:00Z,30.4367,-88.0117,2.432,7.83,1111122 
DISL,ioos:station:DISL:MBLA:1,2014-10-02T05:07:00Z,30.4367,-88.0117,1.921,7.81,1111122 
DISL,ioos:station:DISL:MBLA:1,2014-10-02T05:10:00Z,30.4367,-88.0117,1.579,7.74,1111122 
DISL,ioos:station:DISL:MBLA:1,2014-10-02T05:12:00Z,30.4367,-88.0117,0.929,7.71,1111122 
DISL,ioos:station:DISL:MBLA:1,2014-10-02T05:15:00Z,30.4367,-88.0117,0.426,7.65,1111122 
DISL,ioos:station:DISL:MBLA:1,2014-10-02T06:02:00Z,30.4367,-88.0117,3.093,7.67,1111122 
DISL,ioos:station:DISL:MBLA:1,2014-10-02T06:05:00Z,30.4367,-88.0117,2.459,7.75,1111122 
DISL,ioos:station:DISL:MBLA:1,2014-10-02T06:07:00Z,30.4367,-88.0117,2.044,7.75,1111122 
DISL,ioos:station:DISL:MBLA:1,2014-10-02T06:10:00Z,30.4367,-88.0117,1.547,7.81,1111122 
DISL,ioos:station:DISL:MBLA:1,2014-10-02T06:13:00Z,30.4367,-88.0117,1.064,7.71,1111122 
DISL,ioos:station:DISL:MBLA:1,2014-10-02T06:15:00Z,30.4367,-88.0117,0.424,7.55,1111122 
DISL,ioos:station:DISL:MBLA:1,2014-10-02T07:07:00Z,30.4367,-88.0117,1.917,7.55,1111122 
DISL,ioos:station:DISL:MBLA:1,2014-10-02T07:12:00Z,30.4367,-88.0117,0.945,7.53,1111122 
DISL,ioos:station:DISL:MBLA:1,2014-10-02T07:15:00Z,30.4367,-88.0117,0.534,7.5,1111122 
DISL,ioos:station:DISL:MBLA:1,2014-10-02T08:02:00Z,30.4367,-88.0117,3.043,7.38,1111122 
DISL,ioos:station:DISL:MBLA:1,2014-10-02T08:07:00Z,30.4367,-88.0117,2.073,7.41,1111122 
DISL,ioos:station:DISL:MBLA:1,2014-10-02T08:10:00Z,30.4367,-88.0117,1.406,7.42,1111122 
DISL,ioos:station:DISL:MBLA:1,2014-10-02T08:12:00Z,30.4367,-88.0117,1.086,7.49,1111122 
DISL,ioos:station:DISL:MBLA:1,2014-10-02T08:15:00Z,30.4367,-88.0117,0.434,7.4,1111122 
DISL,ioos:station:DISL:MBLA:1,2014-10-02T09:02:00Z,30.4367,-88.0117,3.063,7.19,1111122 
DISL,ioos:station:DISL:MBLA:1,2014-10-02T09:05:00Z,30.4367,-88.0117,2.427,7.31,1111122 
DISL,ioos:station:DISL:MBLA:1,2014-10-02T09:07:00Z,30.4367,-88.0117,1.906,7.33,1111122 
DISL,ioos:station:DISL:MBLA:1,2014-10-02T09:10:00Z,30.4367,-88.0117,1.555,7.36,1111122 
DISL,ioos:station:DISL:MBLA:1,2014-10-02T09:12:00Z,30.4367,-88.0117,0.922,7.38,1111122 
DISL,ioos:station:DISL:MBLA:1,2014-10-02T09:15:00Z,30.4367,-88.0117,0.417,7.34,1111122 
DISL,ioos:station:DISL:MBLA:1,2014-10-02T10:02:00Z,30.4367,-88.0117,3.037,7.39,1111122 
DISL,ioos:station:DISL:MBLA:1,2014-10-02T10:05:00Z,30.4367,-88.0117,2.477,7.22,1111122 
DISL,ioos:station:DISL:MBLA:1,2014-10-02T10:07:00Z,30.4367,-88.0117,2.055,7.19,1111122 
DISL,ioos:station:DISL:MBLA:1,2014-10-02T10:10:00Z,30.4367,-88.0117,1.55,7.15,1111122 
DISL,ioos:station:DISL:MBLA:1,2014-10-02T10:12:00Z,30.4367,-88.0117,0.919,7.35,1111122 
DISL,ioos:station:DISL:MBLA:1,2014-10-02T10:15:00Z,30.4367,-88.0117,0.422,7.26,1111122 
DISL,ioos:station:DISL:MBLA:1,2014-10-02T11:02:00Z,30.4367,-88.0117,3.01,6.79,1111122 
DISL,ioos:station:DISL:MBLA:1,2014-10-02T11:05:00Z,30.4367,-88.0117,2.448,6.83,1111122 
DISL,ioos:station:DISL:MBLA:1,2014-10-02T11:07:00Z,30.4367,-88.0117,1.924,7.04,1111122 
DISL,ioos:station:DISL:MBLA:1,2014-10-02T11:10:00Z,30.4367,-88.0117,1.407,7.03,1111122 
DISL,ioos:station:DISL:MBLA:1,2014-10-02T11:12:00Z,30.4367,-88.0117,0.919,7.16,1111122 
DISL,ioos:station:DISL:MBLA:1,2014-10-02T11:14:00Z,30.4367,-88.0117,0.415,7.21,1111122 
DISL,ioos:station:DISL:MBLA:1,2014-10-02T12:02:00Z,30.4367,-88.0117,3.05,6.6,1111122 
DISL,ioos:station:DISL:MBLA:1,2014-10-02T12:05:00Z,30.4367,-88.0117,2.428,6.69,1111122 
DISL,ioos:station:DISL:MBLA:1,2014-10-02T12:07:00Z,30.4367,-88.0117,1.908,6.96,1111122 
DISL,ioos:station:DISL:MBLA:1,2014-10-02T12:10:00Z,30.4367,-88.0117,1.568,6.96,1111122 
DISL,ioos:station:DISL:MBLA:1,2014-10-02T12:12:00Z,30.4367,-88.0117,0.928,7.3,1111122 
DISL,ioos:station:DISL:MBLA:1,2014-10-02T12:15:00Z,30.4367,-88.0117,0.418,7.31,1111122 
DISL,ioos:station:DISL:MBLA:1,2014-10-02T13:02:00Z,30.4367,-88.0117,3.033,6.59,1111122 
DISL,ioos:station:DISL:MBLA:1,2014-10-02T13:05:00Z,30.4367,-88.0117,2.549,6.61,1111122 
DISL,ioos:station:DISL:MBLA:1,2014-10-02T13:08:00Z,30.4367,-88.0117,2.052,6.91,1111122 
DISL,ioos:station:DISL:MBLA:1,2014-10-02T13:10:00Z,30.4367,-88.0117,1.554,7.08,1111122 
DISL,ioos:station:DISL:MBLA:1,2014-10-02T13:13:00Z,30.4367,-88.0117,1.061,7.3,1111122 
DISL,ioos:station:DISL:MBLA:1,2014-10-02T13:15:00Z,30.4367,-88.0117,0.411,7.22,1111122 
DISL,ioos:station:DISL:MBLA:1,2014-10-02T14:02:00Z,30.4367,-88.0117,3.035,6.48,1111122 
DISL,ioos:station:DISL:MBLA:1,2014-10-02T14:05:00Z,30.4367,-88.0117,2.437,6.63,1111122 
DISL,ioos:station:DISL:MBLA:1,2014-10-02T14:07:00Z,30.4367,-88.0117,2.076,6.93,1111122 
DISL,ioos:station:DISL:MBLA:1,2014-10-02T14:10:00Z,30.4367,-88.0117,1.558,7.04,1111122 
DISL,ioos:station:DISL:MBLA:1,2014-10-02T14:13:00Z,30.4367,-88.0117,1.045,7.27,1111122 
DISL,ioos:station:DISL:MBLA:1,2014-10-02T14:15:00Z,30.4367,-88.0117,0.538,7.35,1111122 
DISL,ioos:station:DISL:MBLA:1,2014-10-02T15:02:00Z,30.4367,-88.0117,3.081,6.28,1111122 
DISL,ioos:station:DISL:MBLA:1,2014-10-02T15:05:00Z,30.4367,-88.0117,2.576,6.93,1111122 
DISL,ioos:station:DISL:MBLA:1,2014-10-02T15:08:00Z,30.4367,-88.0117,2.047,7.08,1111122 
DISL,ioos:station:DISL:MBLA:1,2014-10-02T15:10:00Z,30.4367,-88.0117,1.593,7.19,1111122 
DISL,ioos:station:DISL:MBLA:1,2014-10-02T15:13:00Z,30.4367,-88.0117,1.049,7.42,1111122 
DISL,ioos:station:DISL:MBLA:1,2014-10-02T15:15:00Z,30.4367,-88.0117,0.52,7.39,1111122 
DISL,ioos:station:DISL:MBLA:1,2014-10-02T16:03:00Z,30.4367,-88.0117,2.951,6.93,1111122 
DISL,ioos:station:DISL:MBLA:1,2014-10-02T16:05:00Z,30.4367,-88.0117,2.205,7.22,1111122 
DISL,ioos:station:DISL:MBLA:1,2014-10-02T16:08:00Z,30.4367,-88.0117,1.957,7.33,1111122 
DISL,ioos:station:DISL:MBLA:1,2014-10-02T16:10:00Z,30.4367,-88.0117,1.384,7.47,1111122 
DISL,ioos:station:DISL:MBLA:1,2014-10-02T16:13:00Z,30.4367,-88.0117,1.075,7.41,1111122 
DISL,ioos:station:DISL:MBLA:1,2014-10-02T16:15:00Z,30.4367,-88.0117,0.547,7.4,1111122 
DISL,ioos:station:DISL:MBLA:1,2014-10-02T17:03:00Z,30.4367,-88.0117,2.906,6.97,1111122 
DISL,ioos:station:DISL:MBLA:1,2014-10-02T17:08:00Z,30.4367,-88.0117,1.945,7.72,1111122 
DISL,ioos:station:DISL:MBLA:1,2014-10-02T17:11:00Z,30.4367,-88.0117,1.401,7.85,1111122 
DISL,ioos:station:DISL:MBLA:1,2014-10-02T17:13:00Z,30.4367,-88.0117,0.861,7.72,1111122 
DISL,ioos:station:DISL:MBLA:1,2014-10-02T17:16:00Z,30.4367,-88.0117,0.653,7.68,1111122 
DISL,ioos:station:DISL:MBLA:1,2014-10-02T18:03:00Z,30.4367,-88.0117,2.945,7.34,1111122 
DISL,ioos:station:DISL:MBLA:1,2014-10-02T18:05:00Z,30.4367,-88.0117,2.408,7.63,1111122 
DISL,ioos:station:DISL:MBLA:1,2014-10-02T18:08:00Z,30.4367,-88.0117,2.041,7.82,1111122 
DISL,ioos:station:DISL:MBLA:1,2014-10-02T18:10:00Z,30.4367,-88.0117,1.418,7.84,1111122 
DISL,ioos:station:DISL:MBLA:1,2014-10-02T18:13:00Z,30.4367,-88.0117,1.127,7.85,1111122 
DISL,ioos:station:DISL:MBLA:1,2014-10-02T18:15:00Z,30.4367,-88.0117,0.337,7.8,1111122 
DISL,ioos:station:DISL:MBLA:1,2014-10-02T19:05:00Z,30.4367,-88.0117,2.533,7.77,1111122 
DISL,ioos:station:DISL:MBLA:1,2014-10-02T19:08:00Z,30.4367,-88.0117,2.097,7.85,1111122 
DISL,ioos:station:DISL:MBLA:1,2014-10-02T19:10:00Z,30.4367,-88.0117,1.362,7.82,1111122 
DISL,ioos:station:DISL:MBLA:1,2014-10-02T19:13:00Z,30.4367,-88.0117,0.996,7.85,1111122 
DISL,ioos:station:DISL:MBLA:1,2014-10-02T19:16:00Z,30.4367,-88.0117,0.386,7.86,1111122 
DISL,ioos:station:DISL:MBLA:1,2014-10-02T20:03:00Z,30.4367,-88.0117,2.982,6.95,1111122 
DISL,ioos:station:DISL:MBLA:1,2014-10-02T20:05:00Z,30.4367,-88.0117,2.542,7.79,1111122 
DISL,ioos:station:DISL:MBLA:1,2014-10-02T20:08:00Z,30.4367,-88.0117,2.067,7.85,1111122 
DISL,ioos:station:DISL:MBLA:1,2014-10-02T20:11:00Z,30.4367,-88.0117,1.34,7.96,1111122 
DISL,ioos:station:DISL:MBLA:1,2014-10-02T20:13:00Z,30.4367,-88.0117,1.03,7.95,1111122 
DISL,ioos:station:DISL:MBLA:1,2014-10-02T20:16:00Z,30.4367,-88.0117,0.636,7.98,1111122 
DISL,ioos:station:DISL:MBLA:1,2014-10-02T21:02:00Z,30.4367,-88.0117,3.065,7.4,1111122 
DISL,ioos:station:DISL:MBLA:1,2014-10-02T21:05:00Z,30.4367,-88.0117,2.552,7.78,1111122 
DISL,ioos:station:DISL:MBLA:1,2014-10-02T21:08:00Z,30.4367,-88.0117,2.129,7.97,1111122 
DISL,ioos:station:DISL:MBLA:1,2014-10-02T21:10:00Z,30.4367,-88.0117,1.363,8.03,1111122 
DISL,ioos:station:DISL:MBLA:1,2014-10-02T21:13:00Z,30.4367,-88.0117,1.023,8.03,1111122 
DISL,ioos:station:DISL:MBLA:1,2014-10-02T21:15:00Z,30.4367,-88.0117,0.433,8.02,1111122 
DISL,ioos:station:DISL:MBLA:1,2014-10-02T22:03:00Z,30.4367,-88.0117,2.968,6.82,1111122 
DISL,ioos:station:DISL:MBLA:1,2014-10-02T22:05:00Z,30.4367,-88.0117,2.444,7.8,1111122 
DISL,ioos:station:DISL:MBLA:1,2014-10-02T22:08:00Z,30.4367,-88.0117,2.088,7.89,1111122 
DISL,ioos:station:DISL:MBLA:1,2014-10-02T22:10:00Z,30.4367,-88.0117,1.35,7.88,1111122 
DISL,ioos:station:DISL:MBLA:1,2014-10-02T22:13:00Z,30.4367,-88.0117,1.037,7.96,1111122 
DISL,ioos:station:DISL:MBLA:1,2014-10-02T22:15:00Z,30.4367,-88.0117,0.529,7.92,1111122 
DISL,ioos:station:DISL:MBLA:1,2014-10-02T23:02:00Z,30.4367,-88.0117,3.046,7.08,1111122 
DISL,ioos:station:DISL:MBLA:1,2014-10-02T23:07:00Z,30.4367,-88.0117,2.011,7.85,1111122 
DISL,ioos:station:DISL:MBLA:1,2014-10-02T23:10:00Z,30.4367,-88.0117,1.419,7.9,1111122 
DISL,ioos:station:DISL:MBLA:1,2014-10-02T23:12:00Z,30.4367,-88.0117,0.854,7.9,1111122 
DISL,ioos:station:DISL:MBLA:1,2014-10-02T23:15:00Z,30.4367,-88.0117,0.6,7.91,1111122 
DISL,ioos:station:DISL:MBLA:1,2014-10-03T00:02:00Z,30.4367,-88.0117,3.013,7.41,1111122 
DISL,ioos:station:DISL:MBLA:1,2014-10-03T00:05:00Z,30.4367,-88.0117,2.426,7.91,1111122 